• MPC Preparation (Info)

  • MPEC 2022-U192 : 2022 UH6

    The following Minor Planet Electronic Circular may be linked-to from your own Web pages, but must not otherwise be redistributed electronically.

    A form allowing access to any MPEC is at the bottom of this page.


    Read MPEC 2022-U191 Read MPEC 2022-U193


    M.P.E.C. 2022-U192                             Issued 2022 October 22, 15:58 UT
    
         The Minor Planet Electronic Circulars contain information on unusual
             minor planets and routine data on comets.  They are published
        on behalf of Division F of the International Astronomical Union by the
              Minor Planet Center, Smithsonian Astrophysical Observatory,
                              Cambridge, MA 02138, U.S.A.
    
                 Prepared using the Tamkin Foundation Computer Network
    
                                  MPC@CFA.HARVARD.EDU
                URL https://www.minorplanetcenter.net/    ISSN 1523-6714
    
                                    2022 UH6                                 
    
    
    Observations:
         K22U06H  C2022 08 31.54522301 13 12.912-04 10 13.85         21.55GVEU192F51
         K22U06H  C2022 08 31.55789501 13 15.173-04 10 25.95         22.26GVEU192F51
         K22U06H  C2022 09 05.50956001 29 08.946-05 37 10.57         21.95GVEU192F51
         K22U06H  C2022 09 17.51508802 09 37.985-09 48 24.18         22.44GVEU192F52
         K22U06H  C2022 09 17.52602502 09 40.121-09 48 38.96         22.19GVEU192F52
         K22U06H  C2022 09 17.53694702 09 42.184-09 48 53.66         22.23GVEU192F52
         K22U06H  C2022 09 23.52587502 30 01.433-12 03 20.47         21.89GVEU192F52
         K22U06H  C2022 09 23.53812802 30 03.707-12 03 36.21         22.08GVEU192F52
         K22U06H  C2022 09 23.55044202 30 06.041-12 03 52.82         21.80GVEU192F52
         K22U06H  C2022 09 27.52412302 43 12.942-13 30 29.20         21.45GVEU192F52
         K22U06H  C2022 09 27.53574302 43 15.085-13 30 43.51         21.37GVEU192F52
         K22U06H  C2022 10 14.47738503 31 32.529-18 12 59.85         22.22GVEU192F52
         K22U06H  C2022 10 14.48002603 31 32.876-18 13 01.53         20.50GVEU192F52
         K22U06H  C2022 10 15.50416403 33 54.970-18 23 44.31         21.42GVEU192F52
         K22U06H* C2022 10 20.45755203 44 21.228-19 03 30.89         21.91wUEU192F51
         K22U06H  C2022 10 20.47071303 44 22.587-19 03 36.01         21.42wUEU192F51
         K22U06H  C2022 10 20.48380003 44 23.936-19 03 40.68         21.73wUEU192F51
         K22U06H  C2022 10 20.49692403 44 25.284-19 03 45.60         21.75wUEU192F51
         K22U06H  C2022 10 20.60117803 44 36.022-19 04 21.01         21.50GVEU192F52
         K22U06H  C2022 10 20.60180803 44 36.077-19 04 21.06         21.40GVEU192F52
         K22U06H |C2022 10 21.29885 03 45 55.98 -19 07 49.3          21.2 GVEU192807
         K22U06H |C2022 10 21.30624 03 45 56.74 -19 07 51.5          21.5 GVEU192807
         K22U06H |C2022 10 21.31364 03 45 57.48 -19 07 53.7          21.4 GVEU192807
         K22U06H KC2022 10 21.50982803 46 20.68 -19 08 46.1          21.4 GVEU192474
         K22U06H KC2022 10 21.51686703 46 21.45 -19 08 48.8          21.9 GVEU192474
         K22U06H KC2022 10 21.52390503 46 22.15 -19 08 51.3          21.6 GVEU192474
         K22U06H |C2022 10 22.29101 03 47 45.06 -19 12 37.3          21.1 GVEU192807
         K22U06H |C2022 10 22.29471 03 47 45.41 -19 12 38.2          21.1 GVEU192807
         K22U06H |C2022 10 22.29841 03 47 45.74 -19 12 39.3          21.1 GVEU192807
         K22U06H KC2022 10 22.30598 03 47 47.79 -19 13 10.0          21.3 RoEU192291
         K22U06H KC2022 10 22.31046 03 47 48.23 -19 13 11.1          21.4 RoEU192291
         K22U06H KC2022 10 22.31495 03 47 48.68 -19 13 12.6          22.0 RoEU192291
    
    Observer details:
    291 LPL/Spacewatch II.  Observer M. T. Read.  1.8-m f/2.7 reflector + CCD.
    474 Mount John Observatory, Lake Tekapo.  Observers A. C. Gilmore, P. M.
        Kilmartin.  Measurer P. M. Kilmartin.  1.0-m f/7.7 reflector + CCD.
    807 Cerro Tololo Observatory, La Serena.  Observers T. Linder, R. Holmes, L.
        Horn.  1.00-m f/10.0 astrograph + CCD.
    F51 Pan-STARRS 1, Haleakala.  Observers J. Bulger, K. Chambers, T. Lowe, A.
        Schultz, I. Smith.  Measurers S. Chastel, J. Fairlamb, M. Huber, Y.
        Ramanjooloo, R. Wainscoat, R. Weryk, K. Chambers, T. de Boer, H. Gao,
        C.-C. Lin, E. Magnier.  1.8-m Ritchey-Chretien + CCD.
    F52 Pan-STARRS 2, Haleakala.  Observers J. Bulger, K. Chambers, T. Dukes, T.
        Lowe, A. Schultz, I. Smith.  Measurers S. Chastel, J. Fairlamb, M. Huber,
        Y. Ramanjooloo, R. Wainscoat, R. Weryk.  1.8-m Ritchey-Chretien + CCD.
    
    Orbital elements:
    2022 UH6                                                 Earth MOID = 0.2601 AU
    Epoch 2022 Aug. 9.0 TT = JDT 2459800.5                  Bell                    
    M 344.39953              (2000.0)            P               Q                  
    n   0.23433227     Peri.  237.42233     +0.89629667     -0.43538697             
    a   2.6056414      Node   148.15606     +0.44119639     +0.85636819             
    e   0.5327966      Incl.    9.18355     +0.04469931     +0.27761793             
    P   4.21           H   22.73          G   0.15           U   6                  
    Residuals in seconds of arc
    220831 F51  0.1+  0.2-    221014 F52  0.3-  0.0     221021 807  0.0   0.0
    220831 F51  0.0   0.0     221014 F52  0.2-  0.0     221021 474  0.3-  0.4+
    220905 F51  0.1-  0.1+    221015 F52  0.3+  0.3+    221021 474  0.4+  0.0
    220917 F52  0.1+  0.1+    221020 F51  0.0   0.1+    221021 474  0.1+  0.2-
    220917 F52  0.4+  0.0     221020 F51  0.0   0.1-    221022 807  0.1+  0.2-
    220917 F52  0.4-  0.0     221020 F51  0.0   0.1+    221022 807  0.0   0.1-
    220923 F52  0.3+  0.2-    221020 F51  0.0   0.0     221022 807  0.4-  0.3-
    220923 F52  0.2-  0.4+    221020 F52  0.1+  0.0     221022 291  0.4+  0.0
    220923 F52  0.1-  0.2+    221020 F52  0.1-  0.1+    221022 291  0.4+  0.2+
    220927 F52  0.4-  0.7-    221021 807  0.2-  0.1-    221022 291  0.6+  0.1-
    220927 F52  0.0   0.2-    221021 807  0.1+  0.1-
    
    Ephemeris:
    2022 UH6                 a,e,i = 2.61, 0.53, 9                   q = 1.2174
    Date    TT    R. A. (2000) Decl.     Delta      r    Elong.  Phase     V
    2022 09 22    02 24 53.2 -11 28 58   0.2907  1.2440   141.2    30.3    21.8
    ...
    2022 10 07    03 12 07.3 -16 30 27   0.2763  1.2204   138.5    32.9    21.8
    ...
    2022 10 15    03 32 45.1 -18 18 14   0.2784  1.2174   137.6    33.6    21.8
    ...
    2022 10 21    03 45 22.6 -19 06 18   0.2834  1.2196   137.4    33.5    21.8
    2022 10 22    03 47 13.7 -19 11 24   0.2845  1.2203   137.5    33.5    21.8
    2022 10 23    03 49 00.5 -19 15 37   0.2857  1.2211   137.5    33.4    21.8
    ...
    2022 10 29    03 58 12.6 -19 22 49   0.2941  1.2284   138.1    32.7    21.9
    ...
    2022 11 06    04 06 53.5 -18 44 15   0.3092  1.2436   139.8    31.0    22.0
    ...
    2022 11 21    04 14 55.3 -15 19 43   0.3505  1.2884   144.1    26.7    22.2
    
    M. P. C. Staff               (C) Copyright 2022 MPC           M.P.E.C. 2022-U192
    


    Read MPEC 2022-U191 Read MPEC 2022-U193


    MPEC number:

    Enter an MPEC number in one of the following forms:

    • 1997-B01 (the full form)
    • J97B01 (the packed version of the full form)
    • B01 (the abbreviated form)